{"data":{"norad_id":37839,"epoch":"2026-05-25T03:46:23.488320Z","epoch_age_seconds":64488,"freshness":"FRESH","line1":"1 37839U 11058B   26145.15721630  .00000405  00000+0  72032-4 0  9994","line2":"2 37839  19.9606  88.3352 0018624 181.5651 295.5202 14.13769072755765","mean_motion":14.13769072,"eccentricity":0.0018624,"inclination_deg":19.9606,"raan_deg":88.3352,"arg_perigee_deg":181.5651,"mean_anomaly_deg":295.5202,"bstar":7.2032e-5,"rev_number":75576,"period_min":101.8553898596,"perigee_km":833.04748006968,"apogee_km":859.9578178341,"semimajor_km":7224.6396489519,"source":"CELESTRAK","updated_at":"2026-05-25T13:38:23.284646Z"}}